Location: *
(44.1392°N, 4.8079°E)
Time: 06:35:33
(UTC+00:00)

BREEZE-M DEB (TANK) - Pass Details

Date: 21 June 2021
Orbit: 333 x 16573 km, 49.3° (Epoch: 31 July)

Event Time Altitude Azimuth Distance (km) Brightness Sun altitude
Rises 03:01:15 0° 296° (WNW) 2,195 5.2 -8.6°
Reaches altitude 10° 03:03:00 10° 298° (WNW) 1,270 4.0 -8.4°
Maximum altitude 03:05:16 75° 24° (NNE) 395 1.8 -8.1°
Drops below altitude 10° 03:08:48 10° 111° (ESE) 1,969 5.5 -7.6°
Sets 03:12:18 0° 114° (ESE) 3,760 6.9 -7.1°
